Torna al catalogo

STARLINK-4788

AttivoComunicazioniVLEO
NORAD 53863·PAYLOAD·🇺🇸 United States

Lanciato Sep 19, 2022 da Cape Canaveral Space Force Station

Loading…

Prossimi Passaggi (prossime 24 ore)

TLE

AggiornatoSource: CelesTrak SupGP

Epoca: Sep 14, 2026, 22:18 UTC

1 53863C 22114AX  26257.92965278 -.00024741  00000+0 -79522-3 0  2579
2 53863  53.1562 144.4984 0001440  92.0762 344.5704 15.31729995    17

Traccia STARLINK-4788 in tempo reale con AllMySat

Download on the App Store